Location: Newark
(36.6333°N, 138.1833°E)
Time: 09:13:23
(UTC+00:00)

POLYITAN 1 - Visible Passes

Search period start: 06 June 2020 00:00
Search period end: 16 June 2020 00:00
Orbit: 591 x 611 km, 97.9° (Epoch: 05 June)

Date Brightness Start Highest point End Pass type
(mag) Time Alt. Az. Time Alt. Az. Time Alt. Az.
06 Jun ? 15:42:21 10° N 15:45:17 43° N 15:45:17 43° N visible
07 Jun ? 15:53:55 10° N 15:56:57 42° NNW 15:56:57 42° NNW visible
08 Jun ? 14:31:29 10° ENE 14:31:50 11° ENE 14:31:50 11° ENE visible
08 Jun ? 16:05:33 10° N 16:08:37 36° NW 16:08:37 36° NW visible
09 Jun ? 14:42:16 10° NE 14:43:30 15° ENE 14:43:30 15° ENE visible
09 Jun ? 16:17:15 10° N 16:20:16 29° NW 16:20:16 29° NW visible
10 Jun ? 14:53:20 10° NE 14:55:09 19° ENE 14:55:09 19° ENE visible
10 Jun ? 16:29:03 10° NNW 16:31:56 23° WNW 16:31:56 23° WNW visible
11 Jun ? 15:04:32 10° NNE 15:06:49 25° NE 15:06:49 25° NE visible
11 Jun ? 16:40:59 10° NNW 16:43:35 18° WNW 16:43:35 18° WNW visible
12 Jun ? 15:15:52 10° NNE 15:18:28 32° NE 15:18:28 32° NE visible
12 Jun ? 16:53:09 10° NW 16:55:15 14° WNW 16:55:15 14° WNW visible
13 Jun ? 15:27:16 10° NNE 15:30:07 39° NE 15:30:07 39° NE visible
13 Jun ? 17:06:20 10° WNW 17:06:40 10° WNW 17:06:54 10° WNW visible
14 Jun ? 15:38:44 10° NNE 15:41:46 45° NNE 15:41:46 45° NNE visible
15 Jun ? 15:50:17 10° N 15:53:25 45° NNW 15:53:25 45° NNW visible
